Location: Chagrin Falls Park
(41.4139°N, 81.3865°W)
Time: 18:03:14
(UTC+00:00)

GPS 2-04 Rocket1 - Pass Details

Date: 29 October 2020
Orbit: 418 x 545 km, 35.6° (Epoch: 23 November)

Event Time Altitude Azimuth Distance (km) Brightness Sun altitude
Rises 23:32:00 0° 236° (SW) 2,604 7.5 -13.3°
Reaches altitude 10° 23:34:25 10° 224° (SW) 1,742 6.1 -13.8°
Maximum altitude 23:37:50 27° 165° (SSE) 1,034 4.1 -14.4°
Enters shadow 23:39:45 19° 124° (SE) 1,308 4.3 -14.8°
